www.pogodaiklimat.ru

Погода и климат >> Архив погоды >> Индия >> New Delhi


АРХИВ ПОГОДЫ в New Delhi

Время (UTC), дата Ветер
(напр.,м/с)
 
Видим.   Явления Облачность Т
(С)
Тd
(С)
f
(%)
Тe
(С)
Тes
(С)
Комфортность P
(гПа)
Po
(гПа)
Тmin
(С)
Tmax
(С)
R
(мм)
R24
(мм)
S
(см)
18 20.05 штиль 0 4000 м мгла ясно +30.4 +20.8 57 +38 +38 очень
душно
999.2 999.0
21 20.05 штиль 0 2000 м мгла ясно +29.2 +20.8 61 +36 +36 очень
душно
998.1 998.0
00 21.05 штиль 0 2000 м мгла 8/4 900 м
[Cb calv Ac trans]
+27.6 +19.6 62 +33 +33 очень
душно
1000.0 1000.0
03 21.05 СЗ 5 1000 м пыль 4/1 1200 м
[Sc Ac trans]
+31.2 +15.0 37 +33 +36 жарко 1002.9 1003.0 +27.1 +38.7
06 21.05 СВ 5 2000 м мгла 5/3 1200 м
[Sc Ac trans]
+35.6 +15.2 30 +37 +44 душно 1001.8 1002.0
09 21.05 В 2 2000 м мгла 4/3 1200 м
[Sc Ac trans]
+38.2 +17.3 29 +41 +52 опасность
перегрева
998.8 999.0
12 21.05 З 6 500 м гроза, ливневой дождь 10/6 600 м
[Cb cap As op]
+28.8 +21.7 66 +37 +37 очень
душно
1000.1 1000.0 +39.6 2
15 21.05 С 2 2000 м дымка {гроза, дождь} 6/4 1050 м
[Cb calv Ac trans]
+25.4 +22.7 85 +33 +33 очень
душно
1001.0 1001.0 17
18 21.05 штиль 0 2000 м мгла {гроза, дождь} 5/3 1050 м
[Cb calv Ac trans]
+26.0 +19.9 69 +32 +32 очень
душно
1003.6 1004.0 17
21 21.05 штиль 0 2000 м мгла 5/3 1200 м
[Sc Ac trans]
+25.2 +19.0 69 +30 +30 душно 1002.8 1003.0 17
00 22.05 З 3 2000 м мгла 9/5 1050 м
[Cb calv Ac trans]
+25.6 +19.1 67 +31 +31 очень
душно
1003.0 1003.0 17
03 22.05 ЮЗ 2 2000 м слабый дождь {гроза} 10/6 750 м
[Cb calv As op]
+26.4 +18.9 63 +31 +32 душно 1006.9 1007.0 +21.8 +39.6 17
06 22.05 СЗ 2 2000 м морось {дождь} 9/4 900 м
[Cb calv Ac trans]
+28.6 +19.0 56 +34 +40 очень
душно
1005.6 1006.0 0.2
09 22.05 Ю 2 2000 м слабый дождь 10/6 750 м
[Cb calv As op]
+28.0 +19.7 61 +34 +35 очень
душно
1005.9 1006.0 0.2
12 22.05 З 2 2000 м в посл. час дождь 10/6 900 м
[Cb calv As op]
+28.0 +19.4 60 +34 +34 очень
душно
1003.2 1003.0 +29.4 0.6
15 22.05 ЮЗ 1 2000 м мгла 8/4 1200 м
[Sc Ac trans]
+27.4 +20.1 64 +34 +34 очень
душно
1003.7 1004.0 0.6
18 22.05 штиль 0 2000 м дымка ясно +24.8 +20.8 78 +31 +31 очень
душно
1004.6 1005.0 0.6
21 22.05 штиль 0 2000 м дымка ясно +24.2 +21.8 86 +31 +31 очень
душно
1003.6 1004.0 0.6
00 23.05 штиль 0 2000 м дымка ясно +23.8 +19.4 76 +29 +29 душно 1004.4 1004.0 0.6
03 23.05 З 1 2000 м мгла ясно +30.6 +17.8 46 +35 +44 очень
душно
1005.2 1005.0 +23.3 +29.4 0.6
06 23.05 СЗ 3 2000 м мгла ясно +36.4 +17.2 32 +39 +58 опасность
солнечного
удара
1004.9 1005.0
09 23.05 З 5 2000 м мгла 6/4 1050 м
[Cb calv Ac trans]
+37.6 +17.3 30 +40 +44 очень
душно
1001.8 1002.0
12 23.05 С 3 2000 м мгла 6/4 1200 м
[Sc Ac trans]
+37.2 +19.2 35 +42 +43 опасность
перегрева
1000.1 1000.0 +38.3
15 23.05 СВ 1 4000 м мгла 8/4 900 м
[Sc Ac trans]
+33.0 +20.4 48 +40 +40 очень
душно
1001.8 1002.0
18 23.05 штиль 0 4000 м мгла 3/0
[Ac trans]
+30.4 +21.8 60 +39 +39 очень
душно
1002.4 1002.0
21 23.05 штиль 0 2000 м мгла ясно +28.6 +21.1 64 +36 +36 очень
душно
1002.0 1002.0
00 24.05 штиль 0 2000 м мгла 3/0
[Ac trans]
+27.2 +21.8 72 +35 +35 очень
душно
1002.7 1003.0
03 24.05 В 2 2000 м мгла 5/3 1200 м
[Sc Ac trans]
+30.6 +21.4 58 +39 +43 очень
душно
1003.7 1004.0 +26.6 +38.3
06 24.05 В 4 4000 м мгла 3/0
[Ac trans]
+37.6 +19.7 35 +43 +54 опасность
перегрева
1002.9 1003.0
09 24.05 В 3 2000 м мгла 8/3 1200 м
[Sc Ac trans Ci sp]
+40.0 +18.3 28 +43 +49 опасность
перегрева
1000.2 1000.0
12 24.05 С 1 2000 м мгла 8/3 1200 м
[Sc Ac trans Ci sp]
+39.4 +19.5 32 +44 +46 опасность
перегрева
997.7 998.0 +41.0
15 24.05 штиль 0 2000 м мгла 4/1 1200 м
[Sc Ac trans]
+35.0 +22.2 48 +44 +44 опасность
перегрева
999.7 1000.0
18 24.05 ЮЗ 3 2000 м мгла 4/3 1200 м
[Sc Ac trans]
+33.4 +18.0 40 +38 +38 очень
душно
1001.1 1001.0
21 24.05 штиль 0 2000 м мгла 4/3 1200 м
[Sc Ac trans]
+31.8 +17.4 42 +36 +36 очень
душно
999.7 1000.0
00 25.05 штиль 0 2000 м 6/4 1200 м
[Sc Ac trans]
+29.6 +18.4 51 +34 +34 очень
душно
1000.8 1001.0
03 25.05 З 2 2000 м мгла ясно +32.0 +18.1 44 +37 +45 очень
душно
1002.0 1002.0 +28.5 +41.0
06 25.05 ЮЗ 2 4000 м мгла ясно +37.6 +18.9 34 +42 +63 опасность
перегрева
1001.2 1001.0
09 25.05 С 3 4000 м мгла 5/3 1050 м
[Sc Ac trans]
+41.6 +18.7 27 +45 +54 опасность
перегрева
998.5 999.0
12 25.05 С 1 2000 м мгла 3/0
[Ac trans]
+40.0 +18.3 28 +43 +46 опасность
перегрева
996.6 997.0 +41.3
15 25.05 штиль 0 2000 м мгла ясно +35.2 +21.8 46 +43 +43 опасность
перегрева
998.6 999.0
18 25.05 Ю 1 2000 м мгла ясно +32.2 +22.9 58 +42 +42 опасность
перегрева
1000.1 1000.0
21 25.05 штиль 0 2000 м мгла ясно +31.4 +21.3 55 +39 +39 очень
душно
999.3 999.0
00 26.05 штиль 0 2000 м мгла ясно +29.6 +22.2 64 +38 +38 очень
душно
999.5 1000.0
03 26.05 В 2 2000 м мгла ясно +33.6 +21.5 49 +41 +50 опасность
перегрева
1000.6 1001.0 +29.0 +41.3
06 26.05 СЗ 1 2000 м мгла ясно +39.8 +18.8 30 +44 +69 опасность
перегрева
998.9 999.0
09 26.05 ЮЗ 3 2000 м мгла 1/1 1050 м
[Sc]
+43.6 +14.3 18 +44 +58 опасность
перегрева
996.5 997.0
12 26.05 З 3 2000 м мгла 1/1 1200 м
[Sc]
+43.4 +14.6 19 +44 +46 опасность
перегрева
993.1 993.0 +43.9
15 26.05 В 2 4000 м мгла ясно +37.4 +22.8 43 +47 +47 опасность
перегрева
995.6 996.0
18 26.05 В 3 4000 м мгла 3/0
[Ac trans]
+33.0 +18.6 43 +38 +38 очень
душно
997.7 998.0
21 26.05 В 3 2000 м мгла 5/3 1050 м
[Sc Ac trans]
+31.6 +17.9 44 +36 +36 очень
душно
997.2 997.0
00 27.05 В 4 2000 м мгла 3/0
[Ac trans]
+30.6 +18.6 49 +36 +36 очень
душно
997.9 998.0
03 27.05 В 5 2000 м мгла ясно +31.8 +21.1 53 +39 +44 очень
душно
999.8 1000.0 +29.3 +43.9
06 27.05 В 4 4000 м мгла ясно +36.4 +23.2 47 +47 +60 опасность
перегрева
999.6 1000.0
09 27.05 В 2 4000 м мгла ясно +39.6 +21.3 35 +46 +65 опасность
перегрева
997.5 998.0
12 27.05 В 5 4000 м мгла 1/0
[Ac trans]
+38.2 +23.1 42 +48 +49 опасность
перегрева
995.1 995.0 +40.5

 

Местоположение метеостанции New Delhi (Delhi, Индия): широта 28.58 долгота 77.20 высота над уровнем моря 216 м.

В архиве по умолчанию представлена погода в New Delhi за последнюю неделю. Архивные данные за месяц целиком и за предыдущие месяцы, начиная с января 2011 года, Вы можете получить, выбрав интересующий диапазон дат из раскрывающегося списка и нажав кнопку "Ввод!".

Внимание! Время в таблицах - всемирное. Для получения местного времени необходимо прибавить поправку, которая в New Delhi равна 5.5 ч.

Смотрите также архив погоды в соседних городах и на ближайших метеорологических станциях:

Погода в New Delhi Airport (Delhi, Индия) (8 км)
Погода в Ridge (Delhi, Индия) (10 км)
Погода в New Delhi Aya Nagar (Delhi, Индия) (13 км)
Погода в Meerut (Uttar Pradesh, Индия) (70 км)
Погода в Karnal (Haryana, Индия) (126 км)
Погода в Hissar (Haryana, Индия) (157 км)
Погода в Pilani (Rajasthan, Индия) (161 км)
Погода в Najibabad (Uttar Pradesh, Индия) (163 км)
Погода в Agra (Uttar Pradesh, Индия) (176 км)
Погода в Ambala (Haryana, Индия) (204 км)

Пояснения к столбцам:

Ветер - указаны скорость ветра в м/с - средняя за 10 мин, порывы в срок и между сроками (в фигурных скобках) и направление, откуда дует ветер: С - северный, СВ - северо-восточный, В - восточный, ЮВ - юго-восточный, Ю - южный, ЮЗ - юго-западный, З - западный, СЗ - северо-западный.
Видимость - горизонтальная дальность видимости в метрах или километрах. При видимости от 1 до 10 км при отсутствии осадков обычно наблюдается дымка, при ухудшении видимости до 1 км и менее - туман. В сухую погоду видимость может ухудшаться дымом, пылью или мглою.
Явления - указаны атмосферные явления, наблюдавшиеся в срок или в последний час перед сроком; фигурными скобками обозначены явления, наблюдавшиеся между сроками (за 1-3 часа до срока); квадратными скобками обозначены град или гололедные отложения с указанием их диаметра в мм.
Облачность - указаны через наклонную черту общая и нижняя облачность в баллах и высота нижней границы облаков в метрах; квадратными скобками обозначены формы облаков: Ci - перистые, Cs - перисто-слоистые, Cc - перисто-кучевые, Ac - высококучевые, As - высокослоистые, Sc - слоисто-кучевые, Ns - слоисто-дождевые, Cu - кучевые, Cb - кучево-дождевые. Подробнее классификацию облаков см. в Атласе облаков (PDF).
T - Температура воздуха - температура, измеренная на высоте 2 м над землей.
Td - Температура точки росы - температура, при понижении до которой содержащийся в воздухе водяной пар достигнет насыщения.
f - Относительная влажность воздуха - влажноcть воздуха, измеренная на высоте 2 м над землей.
Te - Эффективная температура - температура, которую ощущает одетый по сезону человек в тени. Характеристика душности погоды. При расчете учитывается влияние влажности воздуха и скорости ветра на теплоощущения человека.
Tes - Эффективная температура на солнце - температура, которую ощущает человек, с поправкой на солнечный нагрев. Характеристика знойности погоды. Зависит от высоты солнца над горизонтом, облачности и скорости ветра. Ночью, в пасмурную погоду, а также при ветре 12 м/с и более поправка равна нулю.
P - Атмосферное давление - приведенное к уровню моря атмосферное давление.
Po - Атмосферное давление - измеренное на уровне метеостанции атмосферное давление.
Tmin - Минимальная температура - минимум температуры воздуха на высоте 2 м над землей.
Tmax - Максимальная температура - максимум температуры воздуха на высоте 2 м над землей.
R - Количество осадков - Количество выпавших осадков за период времени, мм. При наведении курсора мыши на число - период времени, за который выпало указанное количество осадков.
R24 - Количество осадков - Количество выпавших осадков за 24 часа, мм.
S - Снежный покров - Высота снежного покрова, см. При наведении курсора мыши на число - состояние снежного покрова и степень покрытия местности в баллах.